Theta_e
324 323 322 323 324 327 329 329 329 331 331 329 328 330 332 336 337 335 334 333 332 331 330 329 326 324 325 325 323 323 324 324 323 323 322 320 319 318 319 318 315 317 322 327 330 331 332 332 331 329 329 331 331 329 328 329 330 324 316 313 312 311
324 324 323 324 324 324 326 325 326 328 328 327 329 331 333 336 336 334 333 332 331 329 328 327 326 326 324 321 321 323 324 325 323 323 324 323 322 321 320 322 320 318 318 323 329 331 332 331 330 329 328 328 328 325 326 328 329 326 320 316 314 314
327 325 324 325 324 323 324 324 324 326 326 328 330 332 333 336 335 333 332 331 330 328 327 326 327 327 325 321 319 323 325 324 323 324 325 325 325 323 322 323 324 323 320 322 328 331 330 329 328 327 325 324 325 324 325 329 329 327 323 319 317 316
328 326 326 326 325 325 324 323 323 324 326 330 332 332 333 334 333 331 330 329 328 327 326 327 330 329 327 325 321 323 324 322 322 323 325 326 326 326 325 324 325 324 323 323 327 328 327 325 324 324 324 323 323 326 327 330 331 327 323 322 321 319
329 327 327 327 327 326 325 323 323 324 326 329 331 332 332 333 332 330 329 327 326 328 328 328 331 329 327 328 325 324 323 320 320 321 323 325 326 326 326 325 324 324 325 324 324 324 324 324 323 324 327 325 324 327 329 330 331 329 325 324 324 322
328 327 327 328 329 328 326 325 323 324 324 326 329 331 332 333 331 329 327 326 326 328 330 329 330 330 329 330 330 328 326 323 320 319 321 324 325 325 325 325 324 324 325 325 324 322 324 327 327 328 328 326 325 329 331 330 330 329 327 325 324 324
328 328 328 329 330 329 328 325 323 324 324 325 328 330 331 331 330 327 325 324 324 327 330 330 330 331 331 331 332 332 331 328 324 320 319 322 325 324 324 324 324 325 326 326 326 324 326 329 329 329 328 326 326 328 329 330 330 329 328 327 325 325
329 329 328 329 330 330 328 325 323 324 325 325 327 327 328 328 327 325 324 324 324 325 329 330 330 332 331 331 333 333 331 327 321 320 321 321 324 324 323 323 324 326 328 328 326 323 325 329 328 328 329 327 326 325 327 330 330 329 329 328 326 325
328 328 328 329 330 330 329 326 324 324 324 324 324 324 324 325 324 323 324 325 325 325 328 330 330 332 331 331 333 331 327 323 321 322 322 320 321 322 321 321 324 327 329 329 326 322 323 328 329 329 329 328 327 326 327 329 329 328 329 328 327 326
328 329 329 330 331 331 330 327 325 324 323 323 323 324 324 324 324 324 326 328 328 326 328 329 330 332 331 331 331 327 324 324 326 326 324 323 321 322 322 323 325 327 328 328 328 327 326 329 331 330 329 328 328 328 328 328 328 328 329 328 327 326
328 330 331 332 331 331 331 329 327 327 325 323 324 326 325 326 326 327 329 330 329 329 329 329 330 331 331 332 330 326 325 326 328 329 328 328 327 328 328 326 327 328 328 329 329 329 330 330 331 330 330 329 329 329 328 328 327 327 329 329 327 327
328 330 332 333 332 332 333 331 329 329 328 325 325 327 329 329 329 329 331 330 330 330 330 329 329 330 331 331 329 327 329 328 330 331 331 330 330 332 331 328 329 329 329 330 330 331 331 330 330 330 330 329 329 330 329 328 327 326 328 328 327 327
329 331 333 334 334 333 333 333 331 330 329 327 327 329 331 331 331 332 331 331 331 331 331 330 330 330 331 329 328 329 331 331 331 332 332 332 332 332 330 330 332 330 329 331 331 331 330 330 330 330 330 330 329 329 329 328 326 325 327 327 325 325
332 332 334 334 334 333 334 334 333 331 329 329 329 331 332 332 332 332 332 332 331 332 332 330 330 331 330 328 329 330 332 333 332 332 332 331 332 331 328 330 332 330 330 331 331 330 330 330 331 330 330 329 329 329 328 327 326 326 326 325 325 325
335 335 335 335 334 333 334 334 334 332 331 331 331 332 333 332 331 332 333 332 332 332 331 330 330 331 330 329 330 329 331 332 331 332 331 330 331 329 327 328 329 329 330 329 330 330 330 331 330 330 329 329 329 329 328 326 325 326 326 326 326 326
337 337 337 335 333 333 334 335 335 334 332 332 333 333 333 332 331 332 333 332 332 332 331 331 330 331 330 330 331 330 330 331 330 331 330 329 330 329 329 328 327 330 330 329 330 331 330 330 330 330 329 329 329 329 329 327 327 326 327 327 327 327
338 338 337 336 334 334 335 335 335 334 333 333 333 333 333 332 331 331 333 332 332 332 331 331 331 331 330 330 331 330 329 329 329 331 330 328 329 328 328 328 328 331 331 330 331 331 330 330 330 330 329 329 330 330 329 329 329 328 328 327 327 327
337 337 337 336 336 335 335 335 335 335 334 334 333 333 333 332 332 332 333 332 332 332 331 331 331 331 331 331 331 328 327 328 328 330 330 328 327 326 327 328 329 331 330 330 331 331 331 330 330 330 330 330 329 330 330 329 329 329 328 328 327 327
337 337 337 336 336 335 335 335 335 335 334 334 333 332 333 332 332 332 332 331 331 331 331 331 331 331 331 330 330 328 327 327 328 329 329 329 327 326 328 329 330 330 330 331 332 331 331 330 331 330 329 328 328 329 328 328 328 328 328 328 327 327
337 337 338 336 336 336 335 335 336 335 334 334 332 332 333 332 332 332 331 331 330 331 331 331 330 331 330 329 329 328 326 325 327 327 326 328 328 327 328 329 330 331 331 331 331 331 330 330 330 330 328 328 328 328 327 326 326 327 328 327 327 326
336 337 337 336 336 336 335 335 335 334 333 332 331 331 331 331 331 331 330 330 331 332 332 331 331 330 329 328 327 327 327 327 327 327 326 327 328 327 329 331 332 332 330 330 331 331 331 330 330 329 328 328 328 327 327 326 326 328 328 327 326 326
336 337 337 336 335 335 334 334 333 333 333 332 331 331 331 331 331 331 331 330 331 331 330 331 331 330 329 327 326 326 327 329 328 328 327 327 328 328 330 332 330 329 329 329 330 331 331 330 329 328 328 328 328 328 327 327 326 327 327 327 327 326
334 334 336 336 334 334 333 333 333 332 332 332 331 331 331 331 331 331 331 332 331 330 330 331 330 329 329 328 326 326 327 329 329 328 327 327 328 329 331 331 329 327 328 329 330 330 330 329 329 328 327 327 327 328 328 327 326 326 326 327 327 326
328 327 332 334 332 332 333 333 333 333 333 332 332 332 332 332 332 332 332 332 331 330 330 330 330 329 328 328 327 326 326 329 328 328 328 328 328 330 331 330 329 329 328 328 330 331 330 329 329 328 327 327 327 327 328 327 326 327 327 327 327 326
326 324 327 328 327 328 330 331 333 334 333 332 332 332 331 332 332 332 332 332 331 331 331 330 329 328 328 328 328 327 327 329 328 328 329 328 329 330 330 329 329 330 328 327 328 330 330 329 329 328 327 327 327 327 328 327 327 327 326 326 326 327
326 325 325 324 324 324 325 327 330 333 333 332 333 332 331 331 331 330 331 331 331 331 330 329 328 328 328 328 328 328 329 329 328 328 328 328 330 329 329 329 329 329 328 327 328 329 329 329 330 329 327 327 327 327 327 327 326 327 327 326 326 326
327 325 324 324 324 323 323 325 329 331 332 332 332 331 331 331 330 330 330 331 331 331 330 328 328 327 327 328 328 328 330 329 328 328 328 329 329 328 328 327 328 328 328 328 329 329 329 329 329 329 328 327 326 327 327 326 326 327 327 326 326 326
327 323 323 324 323 323 323 326 328 330 332 332 331 331 331 331 330 330 330 330 330 329 327 328 328 328 328 329 329 329 329 329 329 328 327 328 328 327 327 326 328 329 328 329 330 329 329 328 328 328 328 327 327 328 328 326 325 325 325 326 326 326
326 324 324 324 324 325 325 326 329 331 332 332 332 331 331 331 330 330 330 329 329 327 326 328 329 330 330 330 330 329 328 329 329 328 327 328 328 327 326 327 327 328 329 330 330 329 329 328 328 328 328 328 328 328 327 326 326 325 324 325 326 326
327 326 325 325 327 328 327 328 330 332 333 332 332 332 332 331 331 330 329 329 329 327 327 330 331 331 330 329 329 328 328 329 329 328 328 329 328 328 328 328 327 328 329 330 330 330 329 327 328 328 328 327 327 327 326 326 326 326 324 324 325 325
328 327 327 328 329 329 329 329 331 333 333 333 333 332 332 332 330 329 329 329 328 328 330 331 330 330 329 328 327 328 329 329 330 329 328 328 328 328 329 328 329 329 328 329 330 330 329 328 327 327 327 327 326 325 325 325 326 326 325 324 325 325
330 330 329 330 331 331 330 331 332 333 333 333 333 332 331 331 329 329 329 328 328 330 331 330 329 330 329 328 327 328 330 330 330 329 329 329 329 329 329 328 329 329 328 329 329 329 329 329 327 327 327 327 326 326 325 326 326 326 326 325 324 325
333 333 333 333 333 333 333 333 332 333 333 333 332 331 331 330 329 328 328 328 330 331 330 329 330 330 329 328 327 329 330 329 329 329 329 330 330 330 329 328 329 329 328 329 329 329 329 329 328 328 328 327 327 327 326 326 326 326 326 326 325 326
334 334 334 335 335 334 334 334 333 332 333 333 332 331 331 330 329 328 327 328 331 330 328 329 330 329 328 327 327 328 328 328 328 328 329 329 330 330 329 328 328 327 327 327 327 328 328 329 329 328 328 327 327 328 327 327 327 326 327 326 325 326
333 333 333 334 334 335 335 334 332 332 333 333 332 331 330 330 328 327 327 330 330 329 329 330 329 329 328 327 326 327 327 326 327 327 328 329 329 330 329 328 327 326 325 326 327 327 328 329 329 328 328 327 327 328 327 327 326 327 327 327 326 325
333 332 332 332 333 333 333 332 331 331 333 332 331 331 330 329 327 327 329 330 329 329 330 330 329 329 328 327 326 326 326 326 327 326 327 328 329 329 329 328 326 325 325 326 326 326 327 328 328 327 327 327 327 328 327 326 326 326 327 326 326 325
333 332 332 332 332 331 329 328 327 329 332 332 331 331 330 328 326 328 330 329 329 330 330 330 329 329 329 328 325 324 324 324 325 325 326 328 329 328 328 327 325 324 324 325 325 325 326 327 326 327 327 326 327 327 326 326 326 327 327 327 326 324
Wind_Speed
26 25 25 24 23 22 21 20 19 18 18 17 16 16 16 17 18 16 15 14 13 13 12 12 11 10 11 12 12 11 12 12 12 13 14 14 13 13 14 16 18 20 19 18 18 17 13 10 8 7 4 3 4 5 6 7 8 8 7 6 6 6
27 26 25 24 23 23 21 21 20 19 18 17 16 17 18 18 18 15 14 14 13 12 12 11 10 9 9 10 11 11 12 11 12 13 14 14 13 14 14 15 16 18 18 18 19 17 13 10 7 5 2 1 3 4 5 6 7 7 7 6 5 5
27 26 26 25 24 23 22 22 21 20 19 18 18 18 19 19 17 15 14 14 13 12 11 10 10 8 8 9 10 11 11 10 12 13 13 14 13 14 14 14 14 16 18 19 19 17 13 9 5 3 0 3 4 4 4 5 6 7 6 5 5 5
26 27 27 25 24 23 23 22 21 21 20 19 19 19 19 19 17 15 15 14 13 12 11 11 11 9 8 9 9 11 11 10 11 13 14 15 14 14 14 14 14 15 17 18 18 16 12 8 5 3 2 3 4 5 3 3 4 6 6 4 4 5
27 27 26 25 24 23 22 22 22 21 20 20 19 20 19 19 18 17 16 14 13 12 11 12 12 10 8 9 9 10 11 10 11 12 14 15 15 15 14 14 13 14 15 16 16 15 12 8 5 4 4 4 5 6 5 5 4 4 5 5 4 4
27 27 25 24 23 23 22 22 22 22 21 21 20 20 20 19 19 17 15 14 14 14 13 13 13 11 10 10 10 10 10 10 10 11 13 15 16 15 14 13 13 13 13 14 14 13 11 8 4 4 6 5 6 7 6 6 5 4 4 5 4 3
27 27 26 24 24 23 22 22 22 22 22 22 21 21 20 20 19 17 15 15 15 15 14 13 13 12 12 11 10 10 9 8 8 10 12 15 16 15 14 13 12 12 12 12 12 12 11 7 3 5 8 7 7 8 7 7 7 6 5 4 4 4
27 28 27 26 25 23 22 22 22 22 22 22 21 21 20 20 19 16 16 16 15 15 14 13 14 13 12 12 10 9 8 7 8 10 13 15 16 15 14 14 13 13 13 12 11 12 11 7 3 5 8 8 7 8 9 9 7 7 6 4 4 3
29 29 28 27 25 23 22 22 22 22 22 21 21 20 20 19 17 16 16 15 15 16 15 14 14 14 12 12 12 10 8 8 9 11 13 15 16 15 14 14 14 15 14 13 12 10 10 8 5 7 6 6 7 8 10 9 8 7 5 3 2 2
29 28 28 27 26 24 23 23 21 20 20 21 20 20 19 18 16 16 16 15 15 15 15 14 15 14 13 12 12 11 10 11 12 13 14 14 15 15 14 15 15 16 15 14 12 8 8 8 8 8 5 5 7 8 10 9 7 6 4 2 2 1
29 28 28 27 26 25 23 23 21 18 19 20 20 19 18 18 17 17 16 15 15 15 16 15 15 14 13 12 11 11 12 13 13 14 15 14 14 14 14 15 15 14 14 12 11 9 8 9 9 7 7 6 6 7 7 7 6 5 4 2 2 1
29 28 28 27 26 25 23 23 21 18 18 20 19 19 18 18 17 17 17 16 16 16 15 15 15 14 14 13 12 12 13 14 12 13 13 13 12 11 12 12 12 11 12 12 12 11 11 10 7 6 7 7 7 7 7 7 6 5 4 3 2 1
29 29 28 27 26 26 23 23 21 18 19 20 20 19 19 18 18 18 18 16 17 16 14 14 14 14 14 13 13 13 12 12 11 11 11 11 10 11 10 10 11 11 11 13 13 12 11 9 7 5 6 7 8 8 7 8 7 5 4 3 2 1
29 29 28 27 27 26 24 22 21 19 20 20 19 20 19 18 18 18 19 18 17 16 15 14 14 15 14 14 14 13 11 11 11 11 10 10 11 12 11 11 12 11 11 12 11 10 10 8 7 6 6 7 8 7 6 7 6 5 4 3 2 2
30 29 29 29 28 27 23 21 20 19 20 19 19 20 19 18 17 18 19 19 17 16 15 14 15 16 15 14 14 13 12 12 11 11 9 10 13 12 12 12 11 10 11 11 10 10 10 8 8 7 7 7 8 7 7 7 6 5 5 3 2 3
32 31 31 29 28 26 22 20 20 20 20 19 19 20 19 17 16 18 20 19 17 16 15 15 16 16 16 15 15 13 13 13 12 11 11 13 14 12 12 12 11 11 12 12 11 11 10 9 8 8 8 8 8 7 7 7 6 6 5 3 3 4
32 32 31 29 27 26 22 21 21 21 21 20 20 20 19 17 16 18 19 18 17 16 16 16 16 16 17 17 15 14 14 14 13 12 13 14 14 13 12 12 13 12 11 12 11 10 11 10 9 10 9 9 9 8 7 7 7 6 6 5 5 4
32 33 32 30 27 25 24 24 22 22 22 20 20 20 19 17 17 18 19 18 17 16 16 17 17 17 17 17 16 15 15 14 14 13 13 14 14 13 12 12 13 13 11 10 10 10 11 11 11 11 11 9 9 9 8 7 7 7 7 6 5 4
32 33 32 30 28 26 26 25 23 22 22 21 20 20 19 17 18 19 19 18 17 17 17 17 18 18 18 17 16 16 15 15 14 13 13 14 15 14 12 13 12 12 11 10 10 10 11 12 14 13 11 10 9 9 8 7 7 7 7 6 5 5
30 31 32 30 28 29 28 25 23 23 23 22 21 20 20 18 18 19 19 18 18 17 17 17 17 18 18 18 16 16 16 15 14 13 14 15 16 14 12 13 12 12 12 12 12 12 12 13 14 13 11 10 9 9 8 7 6 7 8 6 5 6
27 31 32 30 30 29 28 26 24 24 23 22 21 21 20 19 19 19 18 18 18 17 17 17 17 17 17 18 17 16 15 14 14 14 15 15 15 15 12 12 13 12 12 12 13 14 14 14 14 14 12 10 10 9 9 8 7 8 8 6 5 6
26 32 31 28 29 27 25 24 23 22 21 20 21 20 19 18 18 18 18 18 17 17 17 18 18 17 16 16 17 15 13 13 14 14 15 15 15 14 12 12 14 14 12 10 11 14 15 14 14 14 13 12 11 9 8 8 8 8 8 6 6 5
11 17 25 23 23 24 22 22 20 18 18 19 20 19 17 17 18 18 18 17 17 17 18 18 18 17 15 14 15 14 11 12 14 15 15 15 15 14 13 14 14 14 14 12 11 13 14 13 12 12 13 13 12 11 9 8 7 7 7 7 7 7
11 9 18 19 17 19 19 20 19 17 17 18 19 18 17 17 18 18 18 18 17 17 17 18 18 17 15 13 13 13 12 13 15 15 16 16 15 14 14 15 15 15 15 14 14 14 14 13 10 11 13 12 12 12 9 8 9 7 6 7 7 8
17 15 20 21 22 21 20 21 21 20 20 20 20 19 19 20 20 19 19 19 17 16 16 17 18 16 15 13 13 13 13 15 15 16 16 15 14 14 14 15 16 16 15 13 14 15 15 13 10 10 11 10 10 11 11 12 11 7 6 7 8 8
24 23 22 22 27 28 24 24 26 26 25 24 23 22 22 22 22 21 19 18 18 16 16 16 17 15 14 13 12 12 14 15 15 16 15 14 14 14 14 16 16 16 14 12 12 14 16 14 11 12 13 9 7 7 11 16 14 10 8 7 7 8
25 24 22 21 27 29 25 26 27 28 27 25 24 23 22 21 21 20 18 18 18 16 15 15 16 15 14 13 12 12 14 15 15 15 13 14 15 14 15 17 17 15 14 13 12 14 16 15 15 16 14 12 9 5 7 13 14 14 14 11 9 8
24 20 20 22 25 27 26 26 26 27 27 25 23 22 21 20 20 19 17 17 17 16 15 15 15 14 14 14 13 13 14 15 15 14 13 15 16 15 16 17 17 16 15 14 13 14 17 17 18 18 15 14 12 7 8 13 13 12 15 17 13 10
24 20 21 22 23 25 25 24 24 27 27 25 23 22 20 19 20 19 18 17 17 16 15 15 15 15 15 15 14 14 15 15 15 14 14 15 16 16 18 18 17 17 16 15 14 14 17 17 17 17 16 15 12 10 12 14 12 12 14 18 17 15
22 21 23 25 23 22 23 24 25 26 26 24 23 21 19 19 20 20 19 18 18 17 15 16 16 17 16 15 15 15 15 15 15 14 14 15 16 17 17 17 17 17 16 16 15 15 15 16 16 16 15 15 13 14 16 16 15 14 15 17 18 18
22 24 27 28 26 24 23 24 27 26 25 23 21 20 19 19 20 21 21 19 18 18 18 18 18 17 16 15 15 15 14 15 15 15 15 15 16 16 16 16 16 16 16 16 16 15 14 15 17 16 15 14 14 14 15 15 16 15 16 16 16 19
25 26 27 29 29 28 26 25 26 25 23 21 20 19 19 19 20 21 21 19 19 20 20 19 18 17 15 14 16 16 16 16 16 16 16 16 15 15 16 16 15 15 15 15 16 16 15 16 17 16 15 14 13 13 13 12 13 14 14 13 13 19
27 26 26 27 29 29 28 26 24 22 22 21 19 19 19 18 19 20 20 20 22 22 22 20 18 17 15 16 18 18 18 17 17 17 16 16 16 16 15 15 15 15 16 16 16 15 15 16 16 15 15 14 13 13 13 11 11 12 13 12 13 19
22 22 20 22 25 28 29 26 22 21 21 20 20 20 19 18 18 19 20 22 23 23 22 21 19 18 17 17 19 18 18 17 16 16 16 16 16 16 15 15 15 15 16 16 15 14 15 15 14 14 14 15 14 13 13 13 12 13 13 13 15 20
15 12 12 14 20 25 26 24 20 20 21 20 19 19 17 17 18 19 21 23 24 23 22 20 19 19 17 17 18 18 17 17 16 15 16 15 16 16 15 15 16 15 15 15 15 15 15 15 14 14 14 15 14 14 15 15 14 13 13 13 14 17
16 10 10 12 17 21 23 20 17 18 20 20 19 18 17 18 19 20 23 25 24 22 21 19 19 18 17 17 17 18 17 18 17 16 16 15 15 16 16 16 16 15 15 15 15 15 15 15 15 15 14 14 14 15 15 15 14 14 12 12 12 15
20 13 11 12 15 18 19 15 12 15 18 20 19 17 18 20 21 22 25 25 23 23 21 19 19 19 18 17 17 17 17 17 17 16 16 16 16 16 16 16 15 15 15 15 15 15 15 15 15 14 14 14 14 15 15 14 14 13 12 12 13 15
Wind_Direction
169 170 170 168 168 168 169 172 173 176 176 179 178 173 172 170 165 162 162 158 156 154 150 146 142 151 161 170 172 161 158 165 170 168 165 162 160 152 141 135 138 147 150 146 139 133 134 141 151 159 154 90 62 41 28 28 21 22 33 46 57 61
170 169 168 165 164 164 166 170 173 175 176 179 175 173 173 171 171 169 165 161 160 158 152 147 144 147 157 172 175 165 160 166 172 172 169 166 163 155 147 140 136 140 146 149 145 138 140 141 149 158 140 39 7 -0 5 22 18 16 27 37 44 48
170 167 166 164 163 163 167 170 173 176 177 177 175 176 174 173 177 174 168 166 165 159 153 148 144 146 150 165 171 164 161 164 172 174 174 170 165 158 151 147 142 138 141 148 150 147 150 148 154 173 218 311 321 330 344 6 12 11 17 28 37 39
171 169 167 164 164 165 168 171 174 177 179 177 176 178 176 178 181 179 176 172 168 159 154 149 148 150 145 153 161 163 166 167 171 173 177 174 167 162 156 153 152 146 146 151 156 161 162 160 175 209 246 281 295 299 313 338 1 12 17 27 37 43
174 171 169 167 167 168 170 172 175 178 179 179 179 181 180 183 184 183 182 176 171 161 156 154 154 154 141 145 153 160 169 172 174 174 177 178 171 166 161 158 157 155 155 157 164 173 169 164 179 215 239 255 283 290 296 309 333 -0 11 14 18 36
177 173 172 172 171 172 173 173 176 178 180 182 183 183 183 184 187 188 186 181 175 165 161 159 156 153 143 142 144 148 158 163 172 174 176 179 175 169 165 164 163 160 159 164 175 179 167 157 173 227 247 259 276 283 289 297 303 316 340 351 356 19
180 177 176 175 176 175 175 176 179 180 182 184 183 185 186 187 191 192 188 184 177 171 167 163 157 154 148 145 146 147 152 156 165 171 173 177 177 174 171 169 167 164 162 170 185 186 175 164 173 229 246 257 268 273 275 280 284 291 303 314 334 7
185 182 180 178 180 178 178 180 182 184 185 187 186 189 190 191 193 190 186 182 176 174 172 166 162 159 155 153 154 156 161 166 166 166 168 173 177 178 177 176 170 164 162 173 191 195 182 171 180 214 238 253 262 268 267 272 280 286 295 302 323 357
187 185 183 181 182 181 180 182 185 187 188 190 192 193 193 193 191 186 185 181 176 175 173 170 166 163 163 163 161 162 167 160 153 157 162 168 175 177 178 176 170 166 170 181 194 198 176 164 190 206 226 253 258 263 264 270 280 283 290 300 320 349
189 188 186 185 185 184 184 185 185 188 190 191 194 196 194 192 188 185 184 182 179 177 175 173 170 168 169 171 166 166 168 156 148 148 151 157 164 166 167 168 169 174 181 188 193 193 173 179 213 217 217 236 243 252 258 264 272 275 276 278 297 329
193 191 190 188 188 186 186 186 184 186 190 190 193 199 196 192 189 187 187 186 181 178 180 178 176 175 173 174 173 167 163 156 149 145 146 149 150 153 159 165 172 179 184 187 188 193 195 208 226 229 224 221 225 240 249 255 261 261 257 253 270 318
197 195 193 191 189 187 188 187 186 187 190 188 192 200 200 197 194 192 193 191 185 183 186 183 180 182 179 178 177 168 158 154 148 145 146 141 144 157 161 166 174 176 181 184 190 200 206 213 223 230 226 220 226 241 244 245 250 247 244 240 215 194
201 199 195 192 190 188 190 190 190 191 192 190 192 200 203 201 200 199 198 194 192 192 191 189 184 182 182 180 177 167 156 157 155 155 151 140 163 184 167 175 190 184 189 194 199 207 208 210 214 221 224 224 232 241 239 234 235 228 218 211 196 198
207 203 198 194 193 191 192 193 193 193 194 193 194 201 205 204 205 205 202 197 196 199 198 195 187 182 183 181 175 165 160 169 169 168 164 157 185 193 167 182 197 189 196 203 209 212 208 208 207 209 212 219 226 225 217 214 218 210 196 186 178 174
216 210 202 198 197 193 194 194 194 196 195 197 198 205 209 207 208 207 204 200 199 203 204 198 190 185 186 182 176 170 170 179 177 177 180 175 189 188 168 180 191 194 205 207 211 213 210 206 197 193 191 199 207 208 201 199 208 204 191 189 174 160
217 213 205 202 200 196 197 195 195 198 197 199 202 208 213 213 213 209 204 202 202 204 205 202 196 191 190 187 181 179 182 187 187 189 190 184 188 187 179 185 191 202 212 206 204 208 209 200 185 180 182 189 193 198 199 194 203 207 203 208 182 165
214 213 208 203 200 197 199 200 198 198 198 200 203 209 215 217 217 211 205 204 205 207 207 206 204 198 194 192 186 186 190 192 194 195 191 186 188 191 193 196 193 197 206 203 201 205 204 196 184 181 180 185 186 187 193 194 203 212 216 217 193 180
212 214 211 202 197 194 196 203 202 200 200 202 205 210 215 217 214 211 208 208 209 210 210 212 210 202 196 194 194 194 193 192 193 193 191 191 193 195 195 198 196 195 199 202 207 208 204 194 182 181 181 185 189 186 186 194 203 210 215 218 210 201
211 214 212 202 196 194 195 202 203 202 204 205 207 211 212 211 210 211 211 211 212 211 213 215 209 203 199 198 200 199 194 192 193 193 191 191 195 197 192 191 191 193 197 201 210 208 199 188 177 178 185 183 180 181 182 184 191 205 216 218 218 211
212 213 211 202 197 196 195 199 202 203 205 205 206 208 207 206 207 211 212 210 211 211 214 215 207 204 205 204 204 201 196 195 196 196 193 187 190 195 192 187 185 194 200 195 199 201 191 184 176 175 182 175 166 168 173 175 179 198 214 214 209 209
213 215 210 201 197 197 195 195 199 201 202 204 206 207 205 204 205 208 208 208 210 211 213 212 207 207 209 208 205 200 195 197 200 201 197 189 190 192 186 184 183 193 207 199 192 190 186 186 182 176 174 167 165 168 170 171 173 188 205 210 206 207
216 211 203 198 195 196 198 198 201 202 202 206 207 206 206 205 204 205 206 207 209 212 211 208 207 208 209 207 203 200 199 200 201 204 204 197 194 189 179 187 191 191 200 206 198 188 185 187 185 182 177 167 162 163 171 174 170 179 190 197 201 202
203 193 190 193 191 194 201 203 207 209 207 207 206 207 210 209 208 207 208 209 209 211 208 206 208 208 208 204 201 201 204 206 204 207 208 199 191 183 179 191 198 198 194 193 196 190 187 191 190 185 177 168 165 160 163 177 180 189 195 194 194 191
104 108 177 189 191 201 212 210 211 213 210 209 208 211 213 212 214 211 211 212 208 206 205 205 207 208 206 203 204 204 206 211 209 208 203 191 184 184 187 192 196 205 202 191 189 185 184 192 196 192 177 166 170 167 159 178 189 191 192 187 184 182
131 130 173 190 191 193 204 209 209 208 208 210 210 213 213 211 212 211 211 211 206 201 202 203 205 205 204 203 206 205 204 208 205 200 192 180 179 184 189 194 198 205 207 203 196 184 183 189 192 207 202 178 171 177 176 181 181 173 172 175 174 173
150 152 171 189 187 182 190 201 203 203 205 207 208 212 213 210 210 209 208 207 205 200 198 201 201 201 199 199 200 195 196 200 194 188 182 175 179 184 185 194 203 206 205 209 207 192 186 186 187 204 214 203 190 196 192 185 172 156 160 175 177 171
157 157 167 180 182 182 191 200 203 206 209 209 209 212 213 211 210 210 207 204 204 201 200 200 197 197 197 195 194 190 191 193 185 180 179 179 185 187 186 193 202 206 203 203 208 203 190 183 188 199 205 206 209 231 217 199 182 165 165 173 184 180
167 161 161 171 180 186 197 205 207 209 212 213 214 215 214 211 210 210 207 203 201 201 201 200 197 197 194 189 186 186 188 186 180 178 180 183 188 189 187 193 199 202 203 201 205 207 199 192 193 197 199 200 209 232 226 211 205 194 179 171 176 183
177 176 171 174 182 191 204 212 211 211 213 214 216 219 217 210 207 206 204 199 197 198 199 197 194 191 185 180 180 183 184 181 179 181 182 184 188 188 189 194 199 201 202 202 202 204 207 207 200 197 200 197 203 211 201 200 208 214 195 173 173 182
187 189 189 188 189 194 206 213 215 216 215 215 217 219 216 210 205 201 198 196 194 196 195 189 186 184 181 178 178 182 183 180 180 184 183 184 186 186 190 195 199 204 204 200 200 200 206 213 206 204 208 202 201 197 191 195 199 202 198 182 177 178
199 202 203 203 203 202 205 211 216 218 218 219 221 220 215 209 204 199 196 196 194 193 189 185 184 184 182 180 180 183 182 180 181 185 184 183 185 186 189 193 196 203 205 202 201 199 201 210 209 209 213 213 214 209 202 203 199 194 194 190 182 174
206 211 210 210 212 211 209 210 213 216 218 221 224 222 215 209 206 200 196 195 191 187 185 184 185 187 186 185 184 183 183 183 182 184 184 184 188 191 191 191 193 198 202 204 205 201 198 205 211 212 212 214 218 219 219 218 207 195 192 201 191 170
209 213 215 216 217 217 216 212 210 213 216 220 224 222 216 214 210 202 196 193 187 183 184 185 186 190 193 192 188 185 186 186 184 183 183 183 188 194 195 193 192 194 198 203 207 206 203 206 212 213 210 211 211 212 217 218 212 199 192 202 192 170
217 216 221 225 222 219 219 215 209 210 214 217 221 219 218 217 209 201 195 190 186 184 185 187 190 194 195 191 188 188 189 188 186 183 181 184 188 193 198 196 194 195 197 201 205 207 207 208 212 210 208 210 207 205 210 213 212 203 194 196 191 178
236 239 243 236 225 219 219 216 211 212 214 215 217 218 217 211 204 200 192 186 186 187 187 189 194 195 191 187 186 187 190 190 189 185 182 185 188 191 196 198 198 198 196 199 203 205 207 210 213 210 206 209 208 204 207 211 210 202 200 201 196 191
235 270 288 260 237 227 220 215 214 214 215 215 214 213 208 201 198 195 187 184 187 189 189 193 196 194 191 188 186 186 189 192 193 188 184 186 186 186 191 196 198 196 193 195 199 204 208 211 213 210 204 205 207 206 206 208 206 200 203 208 204 202
223 245 282 266 245 234 225 224 222 213 211 213 213 207 200 194 192 189 185 186 191 191 193 199 200 197 194 192 190 188 188 190 192 189 186 186 184 183 187 193 196 193 191 193 197 202 206 208 207 205 203 203 203 204 205 204 203 202 203 204 206 204